IRS-P6 (RESOURCESAT-1)

Last updated on Thu Oct 30 2025 00:02:30 GMT+0000 (Coordinated Universal Time)

1 28051U 03046A 25302.55971285 .00000209 00000+0 84341-4 0 9997 2 28051 98.2246 344.9980 0063241 315.0758 205.0045 14.36045001147429
UTC large
Height (km)
Speed (km/s)
/
Latitude / Longitude
Inclination (degrees)
Orbital Period (minutes)
Azimuth
Elevation
Range (km)
Doppler Factor

Next 0 passes for location: London (51.5072 / 0.1276)

Sorry there are no passes over London.